This is the latest recevied weather packets stored in our database for station/object KY4LEX. If no packets are shown the sender has not sent any weather packets the latest 10 day(s).
| Time | Temp. | Humidity | Pressure | Rain* | Wind** | Luminosity | Snow |
|---|---|---|---|---|---|---|---|
| 1778188413 | 18.89° C | 27% | 1019.5 hPa | 0 mm | - | 377 W/m² | - |
| 1778188110 | 20° C | 26% | 1019.6 hPa | 0 mm | - | 391 W/m² | - |
| 1778187807 | 20° C | 28% | 1019.4 hPa | 0 mm | - | 403 W/m² | - |
| 1778187503 | 20° C | 27% | 1019.4 hPa | 0 mm | - | 417 W/m² | - |
| 1778187201 | 19.44° C | 28% | 1019.3 hPa | 0 mm | - | 430 W/m² | - |
| 1778186896 | 18.89° C | 28% | 1019.2 hPa | 0 mm | - | 441 W/m² | - |
| 1778186594 | 18.33° C | 29% | 1019.7 hPa | 0 mm | - | 455 W/m² | - |
| 1778186292 | 17.78° C | 28% | 1019.6 hPa | 0 mm | - | 469 W/m² | - |
| 1778185989 | 19.44° C | 27% | 1019.4 hPa | 0 mm | - | 481 W/m² | - |
| 1778185685 | 18.89° C | 28% | 1019.5 hPa | 0 mm | - | 492 W/m² | - |
| 1778185382 | 18.33° C | 28% | 1019.3 hPa | 0 mm | - | 504 W/m² | - |
| 1778185076 | 18.33° C | 30% | 1019.5 hPa | 0 mm | - | 517 W/m² | - |
| 1778184773 | 19.44° C | 28% | 1019.5 hPa | 0 mm | - | 530 W/m² | - |
| 1778184470 | 19.44° C | 30% | 1019.3 hPa | 0 mm | - | 539 W/m² | - |
| 1778184166 | 18.89° C | 27% | 1019.8 hPa | 0 mm | - | 548 W/m² | - |
| 1778183862 | 18.89° C | 29% | 1019.6 hPa | 0 mm | - | 560 W/m² | - |
| 1778183559 | 18.89° C | 33% | 1019.6 hPa | 0 mm | - | 572 W/m² | - |
| 1778183257 | 18.89° C | 36% | 1019.5 hPa | 0 mm | - | 577 W/m² | - |
| 1778182952 | 18.89° C | 30% | 1019.8 hPa | 0 mm | - | 588 W/m² | - |
| 1778182649 | 17.78° C | 32% | 1019.9 hPa | 0 mm | - | 600 W/m² | - |
| 1778182346 | 18.89° C | 32% | 1019.7 hPa | 0 mm | - | 608 W/m² | - |
| 1778182042 | 19.44° C | 34% | 1019.7 hPa | 0 mm | - | 621 W/m² | - |
| 1778181739 | 18.89° C | 32% | 1019.8 hPa | 0 mm | - | 626 W/m² | - |
| 1778181435 | 18.89° C | 33% | 1019.7 hPa | 0 mm | - | 638 W/m² | - |
| 1778181133 | 17.78° C | 34% | 1019.7 hPa | 0 mm | - | 647 W/m² | - |
* Rain latest hour (hover to see other rain measurements)
** Current wind speed in m/s (hover to see current wind gust speed)